SCP
0 0 0 0 0 0 0 0 0 -0 -0 0 0 0 0 0 0 0 0 0 0 0 0 0 0 0 0 0 0 0 0 0 0 0 0 0 0 0 0 0 0 0 0
1 0 0 0 0 0 0 0 0 0 0 0 0 0 0 0 0 0 0 0 0 0 0 0 0 0 0 0 0 0 0 0 0 0 0 0 0 0 0 0 0 0 0
1 0 0 0 0 0 0 0 0 0 0 0 0 0 0 0 0 0 0 0 0 0 0 0 0 0 0 0 0 0 0 0 0 0 0 0 0 0 0 0 0 0 0
1 1 1 1 0 0 0 0 0 0 0 0 0 0 0 0 0 0 0 0 0 0 0 0 0 0 0 0 0 0 0 -0 -0 0 0 0 0 0 0 0 0 0 0
1 1 1 1 1 0 0 0 0 0 0 0 0 0 0 0 0 0 0 0 0 0 0 0 0 0 0 0 0 0 -0 -0 0 0 0 0 0 0 0 0 0 0 0
1 1 1 1 1 1 1 0 0 0 0 0 0 0 0 0 0 0 0 0 0 0 0 0 0 0 0 0 0 -0 -0 -0 0 0 0 0 0 0 0 0 0 0 0
1 1 1 1 1 1 1 1 0 0 0 0 0 0 0 0 0 0 0 0 0 0 0 0 0 0 0 0 0 -0 -0 -0 0 0 0 0 0 0 0 0 0 0 0
1 1 1 1 1 1 1 1 1 1 1 1 1 0 0 0 0 0 0 0 0 0 0 0 0 0 0 0 0 -0 -0 -0 0 0 0 0 0 0 0 0 0 0 0
1 1 1 1 1 1 1 1 1 1 1 1 1 1 0 0 0 0 0 0 0 0 0 0 0 0 0 0 -0 -0 -0 -0 0 0 0 0 0 0 0 0 0 0 0
1 1 1 1 1 1 1 1 1 1 1 1 1 1 0 0 0 0 0 0 0 0 0 0 0 0 0 0 -0 -0 -0 -0 -0 0 0 0 0 0 0 0 0 0 0
1 1 1 1 1 1 1 1 1 1 1 1 1 0 0 0 0 0 0 0 0 0 0 0 0 0 0 0 0 0 -0 -0 0 0 0 0 0 0 0 0 0 0 0
1 1 1 1 1 1 1 1 1 1 1 1 0 0 0 0 0 0 1 1 0 0 0 0 0 0 0 0 0 0 0 0 0 0 0 1 1 0 0 0 0 0 0
1 1 1 1 1 1 1 1 1 1 1 1 1 0 0 0 0 1 1 1 0 0 0 0 0 0 0 0 0 0 0 0 0 0 1 1 1 1 0 0 0 0 0
1 1 1 1 1 1 1 1 1 1 1 1 1 1 1 1 1 1 1 1 1 0 0 0 0 0 0 0 0 0 0 0 0 0 1 1 1 1 0 0 0 0 0
1 1 1 1 1 1 1 1 1 1 1 1 1 1 1 1 1 1 1 1 1 0 0 0 0 0 0 0 0 0 0 0 0 0 1 1 1 1 1 1 0 0 0
1 1 1 1 1 1 1 1 1 1 1 1 1 1 1 1 1 1 1 1 1 1 1 0 0 0 0 0 0 0 0 0 0 0 1 1 1 1 1 1 1 0 0
1 1 1 1 1 1 1 1 1 1 1 1 1 1 1 1 1 1 1 1 1 1 1 1 1 1 0 0 0 0 0 0 0 1 1 1 1 1 1 1 1 1 1
1 1 1 1 1 1 1 1 1 1 1 1 1 1 1 1 1 1 1 1 1 1 1 1 1 1 1 1 0 0 0 1 1 1 1 1 1 1 1 1 1 1 1
1 1 1 1 1 1 1 1 1 1 1 1 1 1 1 1 1 1 1 1 1 1 1 1 1 1 1 1 1 1 1 1 1 1 1 1 1 1 1 1 1 1 1
1 1 1 1 1 1 1 1 1 1 1 1 1 1 1 1 1 1 1 1 1 1 1 1 1 1 1 1 1 1 1 1 1 1 1 1 1 1 1 1 1 1 1
1 1 1 1 1 1 1 1 1 1 1 1 1 1 1 0 0 0 0 1 1 1 1 1 1 1 1 1 1 1 1 1 1 1 1 1 1 1 1 1 1 1 1
0 0 0 0 0 0 0 1 1 1 1 1 1 1 0 0 0 0 0 0 0 0 0 0 0 1 1 1 1 1 1 1 1 1 1 1 1 1 0 0 1 1 1
0 0 0 0 0 0 0 0 0 0 0 0 0 0 0 0 0 0 0 0 0 0 0 0 0 0 0 1 1 1 1 1 1 1 1 1 1 1 0 0 0 0 1
0 0 0 0 0 0 0 0 0 0 0 0 0 0 0 0 0 0 0 0 0 0 0 0 0 0 0 0 0 1 1 0 0 0 0 0 0 0 0 0 0 0 0
0 0 0 0 0 0 0 0 0 0 0 0 0 0 0 0 0 0 0 0 0 0 0 0 0 0 0 0 0 0 0 0 0 0 0 0 0 0 0 0 0 0 0
0 0 0 0 0 0 0 0 0 0 0 0 0 0 0 0 0 0 0 0 0 0 0 0 0 0 0 0 0 0 0 0 0 0 0 0 0 0 0 0 0 0 0
Wind_Speed
16 16 16 15 14 13 13 13 13 13 12 12 12 12 12 12 12 13 12 12 11 11 11 10 9 9 10 11 12 13 13 13 13 14 15 14 13 12 11 11 13 12 15
19 16 16 15 14 14 14 13 13 13 12 12 11 11 11 11 11 11 11 11 11 10 10 10 10 10 10 10 10 10 10 10 10 11 13 13 13 12 12 13 14 10 13
18 16 15 15 14 14 14 14 13 13 12 12 11 11 10 10 10 11 11 10 10 10 10 10 10 10 10 10 9 9 7 7 7 8 9 9 10 12 13 15 15 13 12
18 15 15 15 14 13 14 14 13 13 13 12 11 10 10 10 10 10 10 10 10 10 10 10 9 9 9 9 8 7 5 3 3 4 4 6 9 12 12 12 13 12 11
17 16 15 15 13 13 13 13 13 13 13 12 11 10 10 9 9 9 9 9 9 9 9 9 9 8 8 8 7 5 2 1 3 6 1 8 9 11 11 11 11 10 10
17 17 15 14 14 13 13 13 13 13 12 12 11 10 9 9 8 8 8 8 8 8 8 8 8 7 7 6 5 3 2 4 6 4 2 8 9 10 10 9 9 9 8
17 15 14 14 14 13 12 13 12 12 11 11 10 10 9 8 8 7 7 7 7 7 7 7 7 6 5 5 3 2 3 6 7 4 2 8 10 12 10 9 8 8 7
16 15 14 14 14 13 12 12 11 11 11 10 10 9 9 8 8 7 7 7 6 6 6 6 6 5 4 3 2 2 4 8 6 2 4 9 12 12 10 8 8 7 7
15 14 12 12 12 12 12 11 11 10 10 10 9 8 8 8 7 7 6 6 6 6 6 6 5 5 4 3 3 3 5 8 8 3 5 8 11 12 10 9 7 7 6
13 12 10 11 10 10 10 11 10 10 10 9 9 9 8 8 7 7 7 7 6 6 6 6 6 5 5 5 5 5 7 8 7 4 3 8 14 12 10 9 8 7 7
11 10 9 9 9 9 10 10 9 9 8 8 8 8 8 6 7 7 8 9 8 7 7 7 6 6 6 7 8 8 7 5 6 2 3 13 14 13 11 10 9 8 7
10 9 7 8 8 8 8 7 6 6 6 6 6 7 6 4 4 5 9 10 9 8 7 8 8 8 8 6 9 10 6 8 6 3 6 16 14 13 12 10 10 9 8
8 7 7 6 5 5 5 5 4 3 4 4 5 5 4 3 3 4 4 6 6 7 6 6 7 7 7 6 5 7 7 5 2 2 7 14 13 13 12 11 11 10 10
8 7 7 5 5 4 4 2 2 2 2 2 3 4 2 1 1 1 2 4 4 3 4 4 5 6 6 5 5 5 5 3 1 1 6 12 12 12 12 11 11 11 11
7 6 7 6 5 4 3 1 2 2 2 1 1 1 0 0 1 1 0 0 2 2 3 3 3 2 2 3 4 3 2 2 1 0 4 11 12 11 12 12 11 12 12
7 7 6 6 5 4 3 2 1 1 2 1 1 1 1 0 1 1 1 1 2 1 1 2 2 1 1 2 3 3 3 2 1 0 2 6 10 10 10 11 11 11 11
8 7 5 5 5 4 3 2 1 1 1 1 1 1 1 1 1 1 1 2 2 2 1 1 2 2 2 3 3 3 2 2 2 1 0 2 3 7 8 8 9 9 10
8 6 5 4 4 4 3 2 2 2 2 1 2 2 1 2 1 1 2 2 3 2 1 1 2 1 1 2 2 2 2 2 2 2 1 1 2 2 5 6 7 8 9
7 6 5 4 3 3 3 2 2 2 2 2 2 2 2 3 2 2 2 2 3 2 1 2 1 1 2 2 2 2 2 2 2 3 2 2 2 2 2 4 6 7 8
7 6 5 4 4 3 2 2 1 2 2 2 2 2 2 2 2 2 2 2 2 1 1 2 2 2 2 2 4 3 2 2 2 2 3 2 2 1 1 1 2 4 6
7 6 5 5 4 2 1 1 1 1 1 2 2 2 2 2 3 2 2 1 1 1 1 2 2 2 2 2 2 2 3 3 3 2 2 1 1 1 1 1 1 1 2
7 6 5 4 4 3 2 1 1 1 1 2 1 2 2 3 3 2 2 2 2 1 1 2 2 2 3 2 2 2 2 2 2 2 2 2 1 0 1 1 1 1 1
7 6 5 5 4 4 3 2 2 1 1 1 2 2 2 3 3 3 4 3 3 2 2 2 2 2 3 3 2 2 1 2 0 1 1 1 2 1 1 1 1 1 1
8 7 6 5 4 4 3 3 2 1 1 1 1 1 1 2 2 3 3 3 3 2 3 3 3 3 3 3 2 2 2 1 1 1 0 1 2 1 1 1 1 1 1
9 7 6 5 5 4 4 4 3 3 2 2 1 1 1 1 3 4 4 4 3 3 3 3 3 3 3 2 2 2 2 2 2 2 2 1 1 1 1 0 0 1 1
8 8 7 6 5 5 5 5 5 5 4 3 3 2 1 2 2 4 4 4 3 3 3 3 3 3 3 3 3 2 2 2 1 2 2 2 1 0 1 1 1 0 0
Wind_Direction
118 121 123 127 129 130 130 128 126 125 122 117 112 106 100 97 94 94 95 98 101 104 105 103 98 92 83 79 78 80 83 85 87 90 91 89 88 86 87 96 103 93 95
119 121 122 126 129 132 134 133 131 129 127 123 119 113 107 104 100 98 99 100 102 103 104 104 102 99 94 90 88 88 90 93 98 104 106 99 91 82 78 80 86 98 99
118 123 124 125 129 133 136 135 133 133 131 128 124 118 112 108 104 102 102 102 102 103 105 106 106 104 101 99 96 96 99 107 116 131 138 114 100 87 86 89 95 100 99
123 128 123 125 127 132 136 136 135 137 136 133 129 125 119 113 108 106 105 105 105 106 107 108 108 107 105 104 103 104 109 124 153 190 189 124 109 99 96 99 102 102 101
118 115 118 123 124 130 135 137 137 139 139 137 134 130 125 119 114 111 110 109 109 109 110 110 110 111 111 109 109 113 133 218 256 256 202 103 102 111 107 107 108 108 106
116 114 117 119 121 126 133 138 138 139 141 141 139 135 131 126 122 120 117 116 115 116 116 116 115 115 113 112 116 133 225 272 283 264 118 118 115 122 119 115 113 114 112
114 115 118 116 119 123 129 134 137 138 140 141 141 139 136 131 128 127 126 125 124 125 125 124 122 121 120 119 128 172 258 280 274 282 121 115 122 129 127 126 123 122 120
115 116 119 119 122 124 128 131 134 137 139 140 141 141 139 138 137 136 137 138 139 139 139 138 137 136 134 135 155 230 273 287 292 306 109 113 133 136 135 135 135 135 133
117 122 130 130 128 126 126 130 135 138 140 141 143 145 146 146 147 147 148 150 154 157 158 155 157 160 165 174 202 250 276 287 295 281 123 122 140 143 146 148 149 149 148
115 121 130 136 133 137 135 135 139 141 143 146 148 154 157 159 163 167 169 168 170 173 176 176 179 185 193 205 221 242 265 282 271 267 123 140 150 151 157 162 166 166 164
110 120 132 134 138 143 141 139 145 148 150 156 161 168 173 183 183 187 186 168 181 187 191 193 197 205 212 218 227 236 251 255 257 235 132 148 155 158 166 172 177 179 179
122 129 132 136 146 149 142 141 154 165 163 181 175 178 198 207 198 190 158 169 184 194 203 209 213 218 227 223 218 225 240 243 250 205 151 155 159 165 173 179 185 190 192
122 117 116 116 122 124 126 150 158 166 164 197 183 192 211 213 193 163 163 170 186 198 208 207 216 226 226 232 210 205 230 243 230 170 152 159 163 171 178 185 192 197 200
101 92 84 83 83 86 101 122 143 136 157 194 179 204 201 226 257 179 185 180 192 201 206 198 228 229 239 241 233 222 231 246 252 138 150 161 170 178 185 192 198 202 205
95 85 85 78 72 77 89 108 124 118 144 168 153 239 192 237 278 283 256 194 216 200 194 208 236 242 263 282 274 272 286 288 310 320 144 170 175 183 190 198 204 208 210
86 75 76 77 72 69 82 72 45 110 129 152 133 96 22 295 285 287 267 267 268 246 199 203 240 249 249 278 285 288 288 291 304 288 145 176 186 189 194 201 207 211 212
87 73 70 76 68 63 66 67 53 42 78 103 107 77 26 290 256 275 273 260 265 258 240 220 237 235 232 251 260 277 288 290 297 332 192 159 184 200 203 200 205 209 211
94 88 73 76 75 69 59 39 39 48 51 50 57 58 27 318 339 312 271 260 272 265 241 234 247 258 262 265 263 261 268 277 268 253 252 207 186 188 199 204 209 206 207
97 92 85 71 70 77 86 77 73 64 43 39 46 39 1 340 332 284 269 278 284 277 262 258 229 230 240 249 255 246 252 256 257 249 224 225 210 171 161 190 209 211 208
96 91 86 81 66 61 80 91 80 73 76 66 59 32 3 340 323 284 253 251 264 276 286 287 282 249 237 240 261 261 240 238 239 235 231 220 188 183 160 163 188 214 206
102 96 85 72 62 47 47 59 104 103 103 93 84 60 23 342 333 318 315 290 289 268 271 281 270 259 239 230 243 264 254 233 228 228 226 203 166 183 148 141 137 200 204
107 96 87 74 58 42 37 26 53 71 92 112 83 55 21 354 350 343 336 336 334 316 295 270 274 265 252 224 217 233 241 243 237 221 191 172 177 141 95 154 147 173 198
115 104 89 69 52 39 27 38 52 72 66 84 82 63 26 11 12 6 1 2 352 345 320 304 291 277 275 259 223 223 229 228 220 217 183 146 126 117 111 139 125 134 157
121 108 94 82 64 47 44 49 52 72 66 51 55 82 43 30 24 28 10 4 349 343 334 323 330 303 285 281 273 248 253 245 204 224 176 112 108 95 54 349 41 85 86
117 111 103 90 73 56 55 59 48 58 59 61 53 82 64 66 48 37 18 9 358 357 353 344 335 324 308 304 297 292 268 260 228 216 228 188 102 71 63 40 54 74 92
120 115 107 97 81 67 61 58 55 59 55 46 31 26 28 55 57 41 23 10 2 0 352 346 332 329 323 319 307 296 285 265 257 235 223 205 171 93 43 22 27 36 133